PVCC

Satellite information

Favourite Embed

Satellite Type and Status

PAYLOADIN ORBIT

Key statistics

Satellite PVCC at a glance.

Uptime

804

Days in orbit

Revolutions

≈ 15.1

Per day

Orbit

SSO

Sun Synchronous Orbit

Inclination

97.6

Latest

Satellite identification and parameters

Extended collection of information and parameters for PVCC.

Object identification

Identified? True

Debris? False

Object name: PVCC

International designator: 2023-155K

Object number (NORAD): 58025

Object ID (CCSDS): 58025

Country: BELGIUM (BEL)

Current information (Y/N): Y

RCS size: MEDIUM

Orbital parameters

Period: 95.16 minutes

Inclination: 97.5912 deg

SMA: 6904.45 km

Apoapsis: 529.951 km

Periapsis: 522.679 km

RAAN: 67.1678 deg

Eccentricy: 0.00052657

Argument of periapsis: 41.2802 deg

Mean anomaly: 318.8826 deg

Mean motion: 15.13244639 rev/day

Mean motion (dot): 0.00004734 rev/day2

B* drag term: 0.00026997289 1/REarth

Two-line elements (TLE)

Creation date: Dec. 21, 2025, 3:42 a.m.

Reference frame: TEME

Reference center: EARTH

Epoch: Dec. 20, 2025, 11:20 p.m. UTC

TLE line 0: 0 PVCC

TLE line 1: 1 58025U 23155K 25354.97289228 .00004734 00000-0 26997-3 0 9996

TLE line 2: 2 58025 97.5912 67.1678 0005266 41.2802 318.8826 15.13244639121004

Live tracking on map

Real-time ground track for satellite PVCC.

In-orbit conjunctions

There are no conjunctions computed for PVCC, at the moment. Check back to stay up to date, as we update our databases every day.

Go to all conjunctions

Associated space launch

THEOS-2 is Thailand’s first Earth observation satellite. Built by Airbus Defense and Space and based on the Astrobus-S platform, it is designed for optical measurements with a ground resolution of approximately 1 meter. TRITON or FORMOSAT-7R is an additional satellite by NSPO added to the joint Taiwanese-US FORMOSAT 7 / COSMIC-2 constellation for collecting atmospheric data for weather prediction and for ionosphere, climate and gravity research. Its GNSS Reflectometry payload can be used to calculate the wind speed over sea surfaces. Cubesats: PROBA-V-CC (Project for On-Board Autonomy - Vegetation - Companion CubeSat) (12U) is a mission that will fly a scaled-down version of the vegetation-monitoring instrument aboard the Earth-observing PROBA-V to conduct combined experimental observations with its predecessor. PRETTY (Passive REflecTomeTry and dosimetrY) (3U) flies a GPS/Galileo signal reflectometer and radiation monitor for Graz University of Technology of Austria. MACSAT (6U) is an In-orbit demonstration (IoD) missionto demonstrate IoT communication over 5G for OQTech. CSC-1 and 2 (6U) contains 7 different experimental payloads from various institutions being flown by ISISPACE/ISL. N3SS (Nanosat 3U pour la Surveillance du Spectre) (3U) is a demonstration system for detecting and localize radio-frequency jammers on civil spectrum for the French CNES. ESTCUBE-2 is a technology demonstration mission with multiple scientific payloads for University of Tartu of Estonia. ANSER LEADER/FOLLOWER 1/2 (Advanced Nanosatellite Systems for Earth observation Research) is a cluster of 3 Earth observing cubesats with panchromatic and hyperspectral cameras for Spain's INTA for monitoring the quality of inland (reservoirs) water over the Iberian Peninsula.

PVCC was lifted into orbit during the mission ‘Vega | THEOS-2, TRITON & others’, on board a Vega space rocket.

The launch took place on Oct. 9, 2023, 1:36 a.m. from Ariane Launch Area 1 (ELV).

For more information about the launch, click the button.

Launch to space Vega | THEOS-2, TRITON & others
Vega | THEOS-2, TRITON & others

Agency: Arianespace

Status: Launch Successful

Launch date: Oct. 9, 2023, 1:36 a.m. UTC

Rocket: Vega

Launch pad: Ariane Launch Area 1 (ELV)

Location: Guiana Space Centre, French Guiana

...

Latest news about this satellite

News about space launch
Two Vega VV23 Payloads Failed to Deploy

A pair of payloads that were among 12 carried to orbit aboard the Arianespace-managed Vega VV23 flight failed to be deployed and likely burned up in the atmosphere still attached to the rocket’s upper stage. The Vega VV23 flight was launched on October 9 ...

News about space launch
Arianespace Launch Europe’s Final Mission of 2023 Aboard Vega

Arianespace launched a Vega rocket in the early hours of 9 October, carrying two primary payloads and ten small secondary payloads. The VV23 flight was Europe’s third and final mission of 2023. The Avio-built Vega rocket was launched from the Guiana Space...

News about space launch
Vega launches a dozen smallsats

A Vega rocket successfully launched a dozen small satellites Oct. 8 while its more powerful version remains grounded for another year.


Newsletter sign-up

Weekly statistics, charts and insights to help you stay on top of the space industry.